SL-3 DEB, 14928

Orbit data source: Space-Track

SL-3 DEB, 14928 is space debris in SSO originally from a launch on Sun, 24 Jul 1983 UTC launched from the Tyuratam Missile And Space Complex (TTMTR). Debris objects in space refer to the collection of defunct objects orbiting the Earth. Examples of debris include non-operational satellites, rocket bodies, and fragments generated from explosions, collisions, or faulty payload assembly.

Loading next visibility...
Identifier
14928, 1983-075F
Orbit
SSO
Country
Flag of CISCIS
Related business
Manufacturer
Unknown
Mission
Spacecraft
Bus & Motor
Unknown
Mass
Unknown
Launch date (UTC)
1983-07-24 (42 years ago)
Launch vehicle
Unknown
Launch site
Tyuratam Missile And Space Complex (TTMTR)
Object type
Payload
Rocket body
Debris
Shape & HBR
Unknown shape, 0.1 m
Radar Cross Section
Small (<0.1 m²)

Expand to show TLE details & history
Last TLE update: 14 hours ago

TLE from 14 hours ago
0 SL-3 DEB
1 14928U 83075F   25346.79133187  .00016798  00000-0  46033-3 0  9996
2 14928  97.7932 291.7140 0019282 355.0094   5.0954 15.37197625290128
Epoch: 2025-12-12T18:59Z
TLE epoch observation values (Epoch: 2025-12-12T18:59:31.073Z)
Latitude
-0.00003°
Longitude
-74.89335°
Altitude
444.378 km
Speed
7.653 km/s
True Right ascension
19h 26m 51s
True Declination
0° 00' 00"
Sunlit
Object was in daylight at epoch
Visualization orbit readout
Latitude
Unknown
Longitude
Unknown
Altitude
Unknown
Speed
Unknown
Apparent Right ascension
Unknown
Apparent Declination
Unknown
Sunlit
N/A
Visualization observer readout
Local Sidereal Time
07:27:32
Azimuth
Unknown
Elevation
Unknown
Doppler factor
Unknown
Orbital elements
Apogee altitude
464.529 km
Perigee altitude
438.192 km
Semi-major axis
6,829.498 km
Eccentricity
0.00193
Inclination
97.7932°
RAAN
291.714°
Arg. of periapsis
355.0094°
True anomaly
5.11507°
Mean anomaly
5.0954°
Eccentric anomaly
5.10523°
Mean motion
3.84556 °/min
Orbital period
93.61 mins
BSTAR
0.00046033
Loading maneuver chart data...
Computing Atmospheric mass density...

Documentation

Showing up to 5 results
|